This is the latest recevied weather packets stored in our database for station/object JA7ZQY-10. If no packets are shown the sender has not sent any weather packets the latest 10 day(s).
| Time | Temp. | Humidity | Pressure | Rain* | Wind** | Luminosity | Snow |
|---|---|---|---|---|---|---|---|
| 1777512154 | 16.67° C | 39% | 1021.8 hPa | 0 mm | - | - | - |
| 1777511554 | 16.67° C | 39% | 1022 hPa | 0 mm | - | - | - |
| 1777510955 | 16.11° C | 40% | 1021.7 hPa | 0 mm | - | - | - |
| 1777510354 | 16.11° C | 41% | 1021.8 hPa | 0 mm | - | - | - |
| 1777509755 | 16.11° C | 40% | 1021.6 hPa | 0 mm | - | - | - |
| 1777509156 | 16.11° C | 41% | 1021.8 hPa | 0 mm | - | - | - |
| 1777508555 | 15.56° C | 42% | 1021.8 hPa | 0 mm | - | - | - |
| 1777507956 | 15.56° C | 43% | 1021.8 hPa | 0 mm | - | - | - |
| 1777507355 | 15° C | 42% | 1021.7 hPa | 0 mm | - | - | - |
| 1777506754 | 14.44° C | 42% | 1021.7 hPa | 0 mm | - | - | - |
| 1777506156 | 14.44° C | 43% | 1021.7 hPa | 0 mm | - | - | - |
| 1777505555 | 14.44° C | 44% | 1021.8 hPa | 0 mm | - | - | - |
| 1777504956 | 13.89° C | 46% | 1021.8 hPa | 0 mm | - | - | - |
| 1777504355 | 13.89° C | 46% | 1021.7 hPa | 0 mm | - | - | - |
| 1777503755 | 13.89° C | 48% | 1021.7 hPa | 0 mm | - | - | - |
| 1777503154 | 13.33° C | 50% | 1021.6 hPa | 0 mm | - | - | - |
| 1777502555 | 13.33° C | 50% | 1021.9 hPa | 0 mm | - | - | - |
| 1777501956 | 12.78° C | 51% | 1021.7 hPa | 0 mm | - | - | - |
| 1777501355 | 12.78° C | 51% | 1021.8 hPa | 0 mm | - | - | - |
| 1777500756 | 12.22° C | 55% | 1021.9 hPa | 0 mm | - | - | - |
| 1777500155 | 12.22° C | 57% | 1022.1 hPa | 0 mm | - | - | - |
| 1777499556 | 11.67° C | 58% | 1022.2 hPa | 0 mm | - | - | - |
| 1777498956 | 11.67° C | 59% | 1022.1 hPa | 0 mm | - | - | - |
| 1777498355 | 11.67° C | 60% | 1022.1 hPa | 0 mm | - | - | - |
| 1777497756 | 11.11° C | 60% | 1022.4 hPa | 0 mm | - | - | - |
* Rain latest hour (hover to see other rain measurements)
** Current wind speed in m/s (hover to see current wind gust speed)